Погода в Ярдымлы

Азербайджан     38°54′34″N   48°14′58″E
темп.,
°C
ветер,
м/с
пор.,
м/с
влажн.,
%
обл.,
%
осадки,
мм/ч
давл.,
гПа
погр.,
м
3 августа, вт
вт301:00+20юз22385 0.0 101313
04:00+20юз22385 0.0 101314
07:00+22ююз113544 0.0 101417
10:00+27всв342373 0.0 10141458
13:00+27юв542766 0.1 10141310
16:00+28вюв542311 0.1 10121560
19:00+26в332657 0.0 1012435
22:00+22юз223512 0.0 101311
4 августа, ср
ср401:00+22зюз22342 0.0 101414
04:00+21юз33353 0.0 101417
07:00+23юз22360 0.0 101521
10:00+28св32251 0.0 10151469
13:00+31всв53192 0.0 10132320
16:00+31в64191 0.0 10121988
19:00+28в33260 0.0 1013455
22:00+23ююз22330 0.0 101414
5 августа, чт
чт501:00+23юз22320 0.0 101412
04:00+22зюз22320 0.0 101412
07:00+24юз22310 0.0 101419
10:00+30св33230 0.0 10141380
13:00+32всв54191 0.0 10122316
16:00+32в64200 0.0 10111664
19:00+28вюв45230 0.0 1011545
22:00+23ю33321 0.0 101225
6 августа, пт
пт601:00+23ю22302 0.0 101216
04:00+22зюз22305 0.0 101212
07:00+24юз11301 0.0 101212
10:00+29всв33223 0.0 10121043
13:00+33в54190 0.0 10101728
16:00+33в65202 0.0 10081483
19:00+29вюв45261 0.0 1008534
22:00+25ююз32344 0.0 100920
7 августа, сб
сб701:00+25з113392 0.0 100911
04:00+24ююз113448 0.0 100911
07:00+25ююв11348 0.0 101023
10:00+31всв33225 0.0 10091031
13:00+35всв54185 0.0 10071678
16:00+35всв54214 0.0 10061357
19:00+31в33280 0.0 1005322
22:00+28з46355 0.0 1009161